| time (UTC) | temp C | wind direction | speed KPH | gust KPH | rain 1hr cm | rain 24hr cm | rain mn cm | humidity % | barometer mb |
| 20260504035512 | 13 | 48 | 33.8 | 49.9 | 0.00 | 0.00 | 0.00 | 34 | 1009.6 |
| 20260504035015 | 14 | 40 | 32.2 | 41.8 | 0.00 | 0.00 | 0.00 | 36 | 1009.4 |
| 20260504034512 | 14 | 36 | 25.7 | 37.0 | 0.00 | 0.00 | 0.00 | 36 | 1009.3 |
| 20260504034012 | 14 | 43 | 12.9 | 17.7 | 0.00 | 0.00 | 0.00 | 37 | 1008.9 |
| 20260504033509 | 15 | 35 | 11.3 | 19.3 | 0.00 | 0.00 | 0.00 | 37 | 1008.8 |
| 20260504033044 | 15 | 19 | 9.7 | 20.9 | 0.00 | 0.00 | 0.00 | 36 | 1008.6 |
| 20260504032518 | 15 | 34 | 12.9 | 20.9 | 0.00 | 0.00 | 0.00 | 36 | 1008.6 |
| 20260504032015 | 15 | 31 | 11.3 | 16.1 | 0.00 | 0.00 | 0.00 | 36 | 1008.6 |
| 20260504031544 | 15 | 32 | 9.7 | 20.9 | 0.00 | 0.00 | 0.00 | 35 | 1008.6 |
| 20260504031013 | 15 | 33 | 12.9 | 22.5 | 0.00 | 0.00 | 0.00 | 35 | 1008.6 |
| 20260504030512 | 15 | 32 | 16.1 | 22.5 | 0.00 | 0.00 | 0.00 | 35 | 1008.6 |
| 20260504030040 | 15 | 28 | 14.5 | 20.9 | 0.00 | 0.00 | 0.00 | 34 | 1008.6 |
| 20260504025510 | 16 | 38 | 14.5 | 24.1 | 0.00 | 0.00 | 0.00 | 34 | 1008.6 |
| 20260504025014 | 16 | 24 | 17.7 | 25.7 | 0.00 | 0.00 | 0.00 | 33 | 1008.6 |
| 20260504024544 | 16 | 37 | 19.3 | 30.6 | 0.00 | 0.00 | 0.00 | 32 | 1008.5 |
| 20260504024014 | 16 | 38 | 19.3 | 32.2 | 0.00 | 0.00 | 0.00 | 32 | 1008.5 |
| 20260504023512 | 16 | 43 | 22.5 | 35.4 | 0.00 | 0.00 | 0.00 | 32 | 1008.3 |
| 20260504023048 | 17 | 28 | 24.1 | 35.4 | 0.00 | 0.00 | 0.00 | 31 | 1008.3 |
| 20260504022509 | 17 | 31 | 20.9 | 30.6 | 0.00 | 0.00 | 0.00 | 31 | 1008.2 |
| 20260504022014 | 17 | 32 | 20.9 | 30.6 | 0.00 | 0.00 | 0.00 | 30 | 1008.2 |
| 20260504021542 | 17 | 30 | 22.5 | 30.6 | 0.00 | 0.00 | 0.00 | 30 | 1007.9 |
| 20260504021012 | 17 | 35 | 22.5 | 32.2 | 0.00 | 0.00 | 0.00 | 30 | 1008.0 |
| 20260504020511 | 18 | 35 | 22.5 | 38.6 | 0.00 | 0.00 | 0.00 | 30 | 1008.0 |
| 20260504020043 | 18 | 46 | 22.5 | 38.6 | 0.00 | 0.00 | 0.00 | 29 | 1008.0 |
| 20260504015512 | 18 | 17 | 20.9 | 32.2 | 0.00 | 0.00 | 0.00 | 28 | 1007.9 |
| 20260504015011 | 18 | 29 | 22.5 | 41.8 | 0.00 | 0.00 | 0.00 | 27 | 1008.0 |
| 20260504014539 | 19 | 28 | 22.5 | 41.8 | 0.00 | 0.00 | 0.00 | 26 | 1007.8 |
| 20260504014013 | 19 | 15 | 27.4 | 40.2 | 0.00 | 0.00 | 0.00 | 26 | 1007.8 |
| 20260504013511 | 20 | 23 | 27.4 | 40.2 | 0.00 | 0.00 | 0.00 | 26 | 1007.9 |
| 20260504013040 | 20 | 17 | 29.0 | 38.6 | 0.00 | 0.00 | 0.00 | 25 | 1008.0 |
| 20260504012511 | 21 | 13 | 27.4 | 37.0 | 0.00 | 0.00 | 0.00 | 22 | 1007.6 |
| 20260504012013 | 21 | 15 | 27.4 | 38.6 | 0.00 | 0.00 | 0.00 | 23 | 1007.7 |
| 20260504011538 | 21 | 5 | 30.6 | 41.8 | 0.00 | 0.00 | 0.00 | 23 | 1007.6 |
| 20260504011011 | 21 | 13 | 27.4 | 41.8 | 0.00 | 0.00 | 0.00 | 23 | 1007.8 |
| 20260504010507 | 21 | 17 | 24.1 | 38.6 | 0.00 | 0.00 | 0.00 | 24 | 1007.6 |
| 20260504010037 | 21 | 5 | 22.5 | 37.0 | 0.00 | 0.00 | 0.00 | 24 | 1007.7 |
| 20260504005511 | 21 | 350 | 25.7 | 33.8 | 0.00 | 0.00 | 0.00 | 24 | 1007.7 |
| 20260504005013 | 21 | 338 | 24.1 | 37.0 | 0.00 | 0.00 | 0.00 | 24 | 1007.6 |
| 20260504004544 | 22 | 5 | 27.4 | 37.0 | 0.00 | 0.00 | 0.00 | 23 | 1007.6 |
| 20260504004011 | 22 | 352 | 25.7 | 37.0 | 0.00 | 0.00 | 0.00 | 22 | 1007.6 |
| 20260504003515 | 22 | 352 | 29.0 | 37.0 | 0.00 | 0.00 | 0.00 | 22 | 1007.7 |
| 20260504003043 | 22 | 360 | 27.4 | 43.5 | 0.00 | 0.00 | 0.00 | 22 | 1007.9 |
| 20260504002511 | 22 | 345 | 24.1 | 43.5 | 0.00 | 0.00 | 0.00 | 23 | 1008.1 |
| 20260504002010 | 22 | 343 | 29.0 | 43.5 | 0.00 | 0.00 | 0.00 | 22 | 1007.9 |
| 20260504001544 | 22 | 305 | 30.6 | 45.1 | 0.00 | 0.00 | 0.00 | 22 | 1007.7 |
| 20260504001013 | 22 | 331 | 32.2 | 43.5 | 0.00 | 0.00 | 0.00 | 21 | 1007.8 |
| 20260504000513 | 22 | 342 | 24.1 | 40.2 | 0.00 | 0.00 | 0.00 | 23 | 1007.9 |
| 20260504000111 | 22 | 352 | 20.9 | 38.6 | 0.00 | 0.00 | 0.00 | 24 | 1008.1 |
| 20260503235514 | 22 | 352 | 27.4 | 40.2 | 0.00 | 0.00 | 0.00 | 23 | 1008.0 |
| 20260503235013 | 22 | 14 | 25.7 | 40.2 | 0.00 | 0.00 | 0.00 | 24 | 1008.1 |
| 20260503234549 | 22 | 341 | 29.0 | 43.5 | 0.00 | 0.00 | 0.00 | 23 | 1008.1 |
| 20260503234011 | 22 | 318 | 24.1 | 40.2 | 0.00 | 0.00 | 0.00 | 23 | 1008.2 |
| 20260503233514 | 22 | 348 | 27.4 | 35.4 | 0.00 | 0.00 | 0.00 | 22 | 1008.2 |
| 20260503233038 | 22 | 344 | 25.7 | 41.8 | 0.00 | 0.00 | 0.00 | 23 | 1008.1 |
| 20260503232512 | 22 | 320 | 25.7 | 41.8 | 0.00 | 0.00 | 0.00 | 23 | 1007.8 |
| 20260503232013 | 22 | 347 | 29.0 | 48.3 | 0.00 | 0.00 | 0.00 | 22 | 1008.0 |
| 20260503231537 | 22 | 320 | 29.0 | 48.3 | 0.00 | 0.00 | 0.00 | 22 | 1008.3 |
| 20260503231011 | 23 | 335 | 32.2 | 43.5 | 0.00 | 0.00 | 0.00 | 22 | 1008.0 |
| 20260503230514 | 23 | 317 | 20.9 | 45.1 | 0.00 | 0.00 | 0.00 | 22 | 1008.2 |
| 20260503230044 | 23 | 335 | 32.2 | 45.1 | 0.00 | 0.00 | 0.00 | 22 | 1008.0 |
| 20260503225509 | 23 | 339 | 19.3 | 38.6 | 0.00 | 0.00 | 0.00 | 25 | 1008.5 |
| 20260503225012 | 22 | 344 | 24.1 | 40.2 | 0.00 | 0.00 | 0.00 | 22 | 1008.4 |
| 20260503224536 | 22 | 337 | 30.6 | 43.5 | 0.00 | 0.00 | 0.00 | 22 | 1008.3 |
| 20260503224011 | 23 | 352 | 30.6 | 40.2 | 0.00 | 0.00 | 0.00 | 22 | 1008.3 |
| 20260503223514 | 23 | 345 | 25.7 | 48.3 | 0.00 | 0.00 | 0.00 | 24 | 1008.4 |
| 20260503223041 | 22 | 341 | 25.7 | 48.3 | 0.00 | 0.00 | 0.00 | 22 | 1008.6 |
| 20260503222510 | 23 | 345 | 27.4 | 41.8 | 0.00 | 0.00 | 0.00 | 22 | 1008.5 |
| 20260503222013 | 23 | 313 | 20.9 | 41.8 | 0.00 | 0.00 | 0.00 | 23 | 1008.7 |
| 20260503221548 | 23 | 318 | 33.8 | 41.8 | 0.00 | 0.00 | 0.00 | 22 | 1008.6 |
| 20260503221015 | 23 | 321 | 27.4 | 41.8 | 0.00 | 0.00 | 0.00 | 22 | 1008.8 |
| 20260503220514 | 23 | 340 | 24.1 | 37.0 | 0.00 | 0.00 | 0.00 | 23 | 1009.0 |
| 20260503220045 | 23 | 323 | 20.9 | 32.2 | 0.00 | 0.00 | 0.00 | 22 | 1009.0 |
| 20260503215512 | 23 | 315 | 24.1 | 38.6 | 0.00 | 0.00 | 0.00 | 24 | 1009.0 |
| 20260503215014 | 23 | 315 | 27.4 | 38.6 | 0.00 | 0.00 | 0.00 | 23 | 1009.2 |
| 20260503214544 | 22 | 321 | 20.9 | 33.8 | 0.00 | 0.00 | 0.00 | 22 | 1009.2 |
| 20260503214017 | 23 | 311 | 20.9 | 37.0 | 0.00 | 0.00 | 0.00 | 22 | 1009.3 |
| 20260503213516 | 23 | 351 | 24.1 | 41.8 | 0.00 | 0.00 | 0.00 | 22 | 1009.4 |
| 20260503213042 | 22 | 338 | 25.7 | 43.5 | 0.00 | 0.00 | 0.00 | 24 | 1009.6 |
| 20260503212513 | 22 | 352 | 29.0 | 43.5 | 0.00 | 0.00 | 0.00 | 22 | 1009.6 |
| 20260503212014 | 22 | 298 | 25.7 | 43.5 | 0.00 | 0.00 | 0.00 | 22 | 1009.7 |
| 20260503211540 | 22 | 317 | 19.3 | 30.6 | 0.00 | 0.00 | 0.00 | 24 | 1009.8 |
| 20260503211011 | 22 | 342 | 19.3 | 35.4 | 0.00 | 0.00 | 0.00 | 24 | 1009.7 |
| 20260503210515 | 22 | 322 | 24.1 | 35.4 | 0.00 | 0.00 | 0.00 | 23 | 1009.8 |
| 20260503210039 | 22 | 342 | 24.1 | 37.0 | 0.00 | 0.00 | 0.00 | 22 | 1009.8 |
| 20260503205512 | 23 | 329 | 29.0 | 38.6 | 0.00 | 0.00 | 0.00 | 21 | 1009.9 |
| 20260503205015 | 22 | 299 | 25.7 | 37.0 | 0.00 | 0.00 | 0.00 | 23 | 1010.1 |
| 20260503204538 | 22 | 350 | 16.1 | 38.6 | 0.00 | 0.00 | 0.00 | 22 | 1010.2 |
| 20260503204014 | 22 | 310 | 22.5 | 40.2 | 0.00 | 0.00 | 0.00 | 21 | 1010.1 |
| 20260503203515 | 22 | 333 | 30.6 | 40.2 | 0.00 | 0.00 | 0.00 | 21 | 1010.0 |
| 20260503203056 | 22 | 307 | 22.5 | 37.0 | 0.00 | 0.00 | 0.00 | 22 | 1010.1 |
| 20260503202511 | 22 | 338 | 25.7 | 41.8 | 0.00 | 0.00 | 0.00 | 21 | 1010.1 |
| 20260503202015 | 22 | 326 | 25.7 | 41.8 | 0.00 | 0.00 | 0.00 | 21 | 1009.9 |
| 20260503201537 | 22 | 327 | 22.5 | 32.2 | 0.00 | 0.00 | 0.00 | 22 | 1010.2 |
| 20260503201014 | 22 | 321 | 22.5 | 37.0 | 0.00 | 0.00 | 0.00 | 23 | 1010.3 |
| 20260503200512 | 22 | 288 | 25.7 | 37.0 | 0.00 | 0.00 | 0.00 | 24 | 1010.3 |
| 20260503200044 | 22 | 323 | 24.1 | 33.8 | 0.00 | 0.00 | 0.00 | 23 | 1010.3 |
| 20260503195513 | 22 | 315 | 17.7 | 38.6 | 0.00 | 0.00 | 0.00 | 26 | 1010.7 |
| 20260503195012 | 22 | 352 | 22.5 | 41.8 | 0.00 | 0.00 | 0.00 | 22 | 1010.6 |
| 20260503194525 | 22 | 360 | 29.0 | 41.8 | 0.00 | 0.00 | 0.00 | 22 | 1010.3 |
| 20260503194009 | 22 | 352 | 25.7 | 38.6 | 0.00 | 0.00 | 0.00 | 23 | 1010.9 |
| 20260503193515 | 22 | 349 | 19.3 | 32.2 | 0.00 | 0.00 | 0.00 | 25 | 1011.1 |
| 20260503193039 | 22 | 346 | 24.1 | 32.2 | 0.00 | 0.00 | 0.00 | 24 | 1010.9 |
| 20260503192514 | 21 | 295 | 20.9 | 32.2 | 0.00 | 0.00 | 0.00 | 23 | 1011.1 |
| 20260503192015 | 21 | 328 | 25.7 | 32.2 | 0.00 | 0.00 | 0.00 | 22 | 1011.1 |
| 20260503191541 | 22 | 304 | 20.9 | 35.4 | 0.00 | 0.00 | 0.00 | 21 | 1011.4 |
| 20260503191015 | 21 | 323 | 24.1 | 35.4 | 0.00 | 0.00 | 0.00 | 25 | 1011.3 |
| 20260503190520 | 21 | 304 | 19.3 | 32.2 | 0.00 | 0.00 | 0.00 | 25 | 1011.4 |
| 20260503190045 | 21 | 346 | 24.1 | 37.0 | 0.00 | 0.00 | 0.00 | 23 | 1011.4 |
| 20260503185515 | 21 | 330 | 25.7 | 38.6 | 0.00 | 0.00 | 0.00 | 23 | 1011.6 |
| 20260503185013 | 21 | 319 | 25.7 | 38.6 | 0.00 | 0.00 | 0.00 | 22 | 1011.6 |
| 20260503184543 | 22 | 325 | 22.5 | 32.2 | 0.00 | 0.00 | 0.00 | 24 | 1011.6 |
| 20260503184010 | 21 | 319 | 24.1 | 35.4 | 0.00 | 0.00 | 0.00 | 24 | 1011.7 |
| 20260503183517 | 21 | 334 | 24.1 | 35.4 | 0.00 | 0.00 | 0.00 | 22 | 1011.5 |
| 20260503183046 | 21 | 317 | 22.5 | 33.8 | 0.00 | 0.00 | 0.00 | 22 | 1011.5 |
| 20260503182516 | 21 | 338 | 17.7 | 32.2 | 0.00 | 0.00 | 0.00 | 25 | 1011.7 |
| 20260503182012 | 21 | 323 | 22.5 | 37.0 | 0.00 | 0.00 | 0.00 | 24 | 1011.7 |
| 20260503181541 | 21 | 339 | 29.0 | 37.0 | 0.00 | 0.00 | 0.00 | 22 | 1011.7 |
| 20260503181015 | 21 | 343 | 25.7 | 37.0 | 0.00 | 0.00 | 0.00 | 22 | 1011.9 |
| 20260503180513 | 21 | 348 | 24.1 | 37.0 | 0.00 | 0.00 | 0.00 | 23 | 1011.9 |
| 20260503180043 | 21 | 338 | 20.9 | 33.8 | 0.00 | 0.00 | 0.00 | 26 | 1011.9 |
| 20260503175509 | 21 | 352 | 22.5 | 32.2 | 0.00 | 0.00 | 0.00 | 23 | 1011.9 |
| 20260503175015 | 21 | 329 | 22.5 | 35.4 | 0.00 | 0.00 | 0.00 | 23 | 1012.0 |
| 20260503174540 | 21 | 338 | 25.7 | 38.6 | 0.00 | 0.00 | 0.00 | 23 | 1012.1 |
| 20260503174016 | 21 | 346 | 25.7 | 38.6 | 0.00 | 0.00 | 0.00 | 25 | 1012.1 |
| 20260503173510 | 21 | 352 | 25.7 | 32.2 | 0.00 | 0.00 | 0.00 | 25 | 1012.2 |
| 20260503173055 | 20 | 5 | 24.1 | 35.4 | 0.00 | 0.00 | 0.00 | 26 | 1012.3 |
| 20260503172514 | 20 | 346 | 20.9 | 35.4 | 0.00 | 0.00 | 0.00 | 27 | 1012.3 |
| 20260503172019 | 20 | 347 | 20.9 | 30.6 | 0.00 | 0.00 | 0.00 | 26 | 1012.3 |
| 20260503171547 | 20 | 320 | 24.1 | 30.6 | 0.00 | 0.00 | 0.00 | 26 | 1012.3 |
| 20260503171018 | 20 | 321 | 20.9 | 29.0 | 0.00 | 0.00 | 0.00 | 27 | 1012.5 |
| 20260503170516 | 19 | 336 | 19.3 | 27.4 | 0.00 | 0.00 | 0.00 | 28 | 1012.4 |
| 20260503150514 | 15 | 344 | 0.0 | 6.4 | 0.00 | 0.00 | 0.00 | 51 | 1013.5 |
| 20260503131013 | 5 | 102 | 1.6 | 3.2 | 0.00 | 0.00 | 0.00 | 85 | 1013.7 |
| 20260503130519 | 4 | 102 | 1.6 | 3.2 | 0.00 | 0.00 | 0.00 | 86 | 1013.7 |
| 20260503110513 | 1 | 191 | 1.6 | 3.2 | 0.00 | 0.00 | 0.00 | 89 | 1014.5 |
| 20260503090512 | 1 | 275 | 4.8 | 6.4 | 0.00 | 0.00 | 0.00 | 81 | 1015.3 |
| 20260503081538 | 3 | 312 | 3.2 | 6.4 | 0.00 | 0.00 | 0.00 | 77 | 1015.9 |
| 20260503081013 | 2 | 317 | 3.2 | 9.7 | 0.00 | 0.00 | 0.00 | 77 | 1015.9 |
| 20260503080512 | 2 | 323 | 6.4 | 9.7 | 0.00 | 0.00 | 0.00 | 77 | 1015.8 |
| 20260503072512 | 3 | 275 | 1.6 | 4.8 | 0.00 | 0.00 | 0.00 | 72 | 1016.1 |
| 20260503072012 | 3 | 275 | 3.2 | 6.4 | 0.00 | 0.00 | 0.00 | 72 | 1016.0 |
| 20260503071546 | 3 | 275 | 3.2 | 4.8 | 0.00 | 0.00 | 0.00 | 71 | 1016.2 |
| 20260503071011 | 3 | 275 | 3.2 | 4.8 | 0.00 | 0.00 | 0.00 | 71 | 1016.2 |
| 20260503070514 | 3 | 275 | 3.2 | 6.4 | 0.00 | 0.00 | 0.00 | 72 | 1016.3 |
| 20260503055013 | 4 | 38 | 3.2 | 6.4 | 0.00 | 0.00 | 0.00 | 69 | 1016.1 |
| 20260503054541 | 4 | 38 | 3.2 | 6.4 | 0.00 | 0.00 | 0.00 | 68 | 1016.2 |
| 20260503054012 | 5 | 38 | 3.2 | 6.4 | 0.00 | 0.00 | 0.00 | 67 | 1016.1 |
| 20260503053514 | 5 | 38 | 3.2 | 4.8 | 0.00 | 0.00 | 0.00 | 66 | 1016.2 |
| 20260503053040 | 5 | 38 | 1.6 | 4.8 | 0.00 | 0.00 | 0.00 | 67 | 1016.1 |
| 20260503052513 | 5 | 38 | 1.6 | 4.8 | 0.00 | 0.00 | 0.00 | 66 | 1016.2 |
| 20260503052012 | 6 | 38 | 1.6 | 3.2 | 0.00 | 0.00 | 0.00 | 64 | 1016.3 |
| 20260503051535 | 6 | 38 | 0.0 | 0.0 | 0.00 | 0.00 | 0.00 | 63 | 1016.2 |
| 20260503051013 | 6 | 38 | 0.0 | 1.6 | 0.00 | 0.00 | 0.00 | 62 | 1016.2 |
| 20260503050513 | 7 | 38 | 0.0 | 3.2 | 0.00 | 0.00 | 0.00 | 62 | 1016.5 |
| 20260503050043 | 7 | 38 | 0.0 | 4.8 | 0.00 | 0.00 | 0.00 | 61 | 1016.5 |
| 20260503045514 | 7 | 38 | 1.6 | 6.4 | 0.00 | 0.00 | 0.00 | 61 | 1016.4 |
| 20260503045012 | 8 | 38 | 4.8 | 6.4 | 0.00 | 0.00 | 0.00 | 58 | 1016.2 |
| 20260503044544 | 8 | 38 | 0.0 | 3.2 | 0.00 | 0.00 | 0.00 | 57 | 1016.1 |
| 20260503044012 | 9 | 38 | 0.0 | 0.0 | 0.00 | 0.00 | 0.00 | 54 | 1016.5 |
| 20260503043512 | 10 | 38 | 0.0 | 3.2 | 0.00 | 0.00 | 0.00 | 51 | 1016.4 |
| 20260503043043 | 11 | 38 | 0.0 | 3.2 | 0.00 | 0.00 | 0.00 | 50 | 1016.2 |
| 20260503042512 | 11 | 38 | 1.6 | 3.2 | 0.00 | 0.00 | 0.00 | 48 | 1016.3 |
| 20260503042015 | 11 | 38 | 1.6 | 3.2 | 0.00 | 0.00 | 0.00 | 48 | 1016.3 |
| 20260503041550 | 11 | 38 | 0.0 | 3.2 | 0.00 | 0.00 | 0.00 | 48 | 1016.5 |
| 20260503041014 | 11 | 38 | 1.6 | 3.2 | 0.00 | 0.00 | 0.00 | 49 | 1016.4 |
| 20260503040514 | 11 | 38 | 0.0 | 3.2 | 0.00 | 0.00 | 0.00 | 50 | 1016.2 |
| 20260503040047 | 11 | 38 | 0.0 | 4.8 | 0.00 | 0.00 | 0.00 | 51 | 1016.3 |